Theta_e
318 320 322 325 324 323 322 323 321 323 322 318 318 321 322 321 321 322 320 328 329 330 335 337 341 339 339 338 339 336 338 337 337 337 336 338 335 334 334 334 337 337 337 334 332 330 330 330 328
319 320 323 325 322 319 318 321 325 323 320 318 318 319 320 321 320 322 326 326 329 330 335 339 339 340 339 337 335 332 332 336 338 336 335 334 333 331 331 333 335 334 333 332 329 326 325 325 323
319 320 323 322 321 318 319 321 321 319 318 319 320 319 321 322 320 322 323 327 329 331 333 337 336 338 339 338 336 333 331 335 334 334 333 332 332 332 332 332 332 332 331 330 325 320 319 318 317
320 321 321 320 320 321 319 319 320 321 318 317 319 320 318 318 320 320 321 328 330 331 332 333 331 334 336 339 337 334 332 336 335 335 333 331 331 331 331 329 330 330 329 325 320 316 311 308 307
318 320 319 320 319 319 319 319 318 319 319 319 318 320 319 316 315 316 324 328 331 331 333 335 332 333 333 334 335 334 334 335 335 332 332 331 330 329 327 327 328 326 323 319 314 315 308 304 301
320 321 319 319 319 319 319 318 318 319 318 317 318 319 320 314 314 317 323 328 331 332 333 334 333 333 334 334 333 333 335 336 333 331 330 330 329 327 324 324 323 320 317 316 317 313 309 304 300
319 319 319 319 320 321 320 316 318 319 319 319 317 319 320 316 314 316 322 327 331 332 332 333 333 334 335 335 336 336 336 334 331 330 329 329 328 324 322 321 319 317 316 317 315 311 306 302 299
320 320 321 321 320 319 319 316 317 318 319 314 316 319 319 317 313 317 321 326 329 331 332 332 333 333 334 336 335 335 334 333 330 329 328 327 326 322 319 317 317 317 317 315 313 308 302 299 298
315 320 320 319 318 318 317 318 315 314 317 315 316 318 317 312 313 318 322 324 326 328 330 331 331 330 332 331 332 332 333 332 329 328 327 326 323 320 317 315 316 318 315 312 306 301 299 298 298
320 320 319 318 317 317 317 317 318 316 317 318 316 316 313 311 314 318 321 323 324 325 326 328 329 328 330 329 329 329 330 330 326 327 326 324 320 317 316 315 315 316 312 308 305 299 297 297 297
319 319 319 316 315 314 316 316 316 317 318 318 318 318 317 313 314 316 318 320 322 324 324 324 325 327 328 327 326 328 328 327 326 326 324 320 317 314 313 314 314 314 310 308 304 297 296 297 297
319 318 318 317 315 315 316 316 316 316 317 317 318 317 317 315 315 315 316 317 319 321 322 323 323 324 326 326 325 325 324 325 324 324 321 318 315 313 312 313 313 312 308 305 300 296 296 296 296
318 318 317 317 316 315 316 317 317 317 317 317 316 314 314 316 315 314 313 315 317 318 319 320 321 322 323 324 324 324 324 323 322 322 319 316 314 311 310 310 310 309 305 301 298 296 296 296 295
315 315 316 315 315 315 315 316 315 315 316 315 315 315 315 314 314 313 312 312 313 315 316 318 319 320 321 322 322 322 322 322 321 319 317 316 312 309 308 308 307 305 302 299 296 296 295 295 294
313 314 315 314 313 314 313 315 315 315 315 314 314 315 314 313 312 312 312 312 312 312 313 315 316 317 319 319 320 320 319 320 319 317 316 314 311 307 304 305 304 302 299 296 295 295 295 294 294
313 312 314 314 311 312 314 314 315 315 312 313 314 314 314 314 314 313 312 312 312 311 311 312 312 313 316 317 318 318 318 316 316 315 313 313 311 307 302 302 301 300 297 295 295 295 294 295 295
314 314 315 314 312 312 314 314 314 313 312 312 313 313 314 314 314 313 313 311 311 311 310 310 310 311 313 315 316 316 316 315 314 313 312 310 309 306 302 301 300 298 295 295 295 295 295 295 294
316 314 313 313 313 311 312 313 312 312 312 312 312 313 313 313 313 312 311 311 310 309 309 309 308 309 311 312 313 314 313 313 313 312 310 308 307 305 301 299 298 297 295 295 295 295 294 295 295
312 312 313 313 313 311 312 313 313 312 312 313 313 313 314 313 312 310 310 309 309 308 308 308 307 306 308 309 311 312 311 311 310 310 309 307 306 305 302 299 298 296 295 295 294 294 293 293 293
312 313 314 314 313 310 312 312 312 312 313 313 313 313 314 313 312 311 310 309 308 307 307 306 306 305 305 307 308 309 308 308 308 308 307 306 304 303 302 299 297 296 295 295 294 293 293 294 293
313 312 313 314 312 311 311 314 313 314 312 312 312 312 311 310 311 311 309 307 306 305 305 304 304 304 303 304 305 306 304 305 305 305 304 303 302 302 302 299 297 296 295 295 294 293 293 294 292
314 313 311 311 311 313 311 315 316 316 316 314 313 310 310 311 309 308 307 305 303 302 302 302 302 302 302 302 303 304 303 304 303 302 302 302 300 300 300 298 297 296 295 294 294 293 293 295 294
312 309 309 310 311 311 313 313 319 313 313 313 311 310 309 307 306 305 303 301 300 299 299 299 300 301 300 300 301 302 302 303 303 302 301 300 299 298 298 297 296 296 295 294 294 293 293 293 295
308 310 311 309 311 317 318 315 316 315 313 312 310 307 306 305 303 301 299 298 297 297 297 297 298 297 298 299 300 300 300 301 301 300 300 299 298 297 297 297 296 295 295 294 294 293 292 292 293
309 311 317 322 321 323 311 315 315 314 312 309 307 305 304 302 301 299 298 297 296 295 295 295 296 295 296 296 297 298 299 299 300 299 299 299 298 297 296 296 295 295 295 295 294 293 292 292 292
311 313 323 328 326 326 320 321 319 313 307 306 306 305 303 301 300 298 297 296 296 295 294 294 294 294 294 294 295 295 296 297 298 298 298 298 298 298 296 295 294 294 294 294 293 292 292 292 291
310 312 313 315 318 319 319 318 313 309 308 306 305 304 302 299 298 297 296 294 294 294 294 293 293 292 292 293 293 293 294 294 295 296 296 297 297 297 296 295 294 294 293 293 292 292 292 291 291
310 311 315 313 321 322 318 317 316 311 309 307 305 302 299 298 297 296 295 293 293 293 293 292 292 291 291 291 291 292 292 293 293 293 294 294 295 295 295 295 294 293 293 292 292 291 291 290 290
309 309 309 313 318 322 322 318 313 311 306 305 301 299 297 296 295 295 294 293 292 291 291 291 290 290 290 290 290 290 291 291 292 292 292 292 292 293 293 293 293 293 292 291 291 291 291 290 290
310 313 313 316 317 316 317 317 313 306 302 300 297 295 295 294 294 293 292 291 291 290 290 290 290 289 288 288 289 289 289 290 290 291 291 291 291 291 292 292 292 292 292 291 290 290 290 290 289
Wind_Speed
2 3 3 3 4 3 3 1 2 3 2 0 3 3 4 6 4 5 0 11 9 22 24 27 26 23 21 20 18 18 17 14 14 13 10 7 8 9 9 9 10 9 7 5 2 4 4 4 3
2 2 1 1 4 4 2 0 2 1 1 2 4 5 5 7 3 3 2 13 12 22 23 24 27 25 22 20 18 17 16 15 14 13 11 7 8 8 9 10 9 8 6 3 3 2 2 2 1
1 2 3 1 2 2 3 2 1 1 3 5 3 4 3 2 2 1 2 15 14 20 20 21 27 26 23 22 20 18 16 17 15 12 10 10 6 7 7 8 10 9 6 4 2 2 2 2 1
1 2 2 4 7 8 5 6 6 8 2 4 4 6 3 5 1 3 3 17 16 18 19 19 25 25 25 22 21 19 18 18 14 13 13 11 11 8 7 8 7 7 7 5 4 3 3 3 3
2 1 3 3 5 5 7 8 6 5 2 3 4 2 4 2 6 3 7 17 17 21 19 18 23 22 23 24 21 20 19 17 17 15 13 13 13 10 9 8 10 10 7 6 5 6 4 4 2
2 2 3 4 4 5 7 6 5 5 2 2 4 5 4 2 4 6 8 14 15 21 22 20 24 23 23 23 22 23 22 22 19 17 15 16 15 12 11 10 10 9 8 7 7 6 6 5 3
2 2 3 4 6 5 2 1 3 2 3 4 2 4 2 5 5 5 8 12 14 18 20 21 21 24 23 24 23 23 23 22 18 16 16 17 15 14 12 12 11 10 10 9 8 7 6 4 3
2 2 3 4 3 5 3 2 2 5 3 2 2 5 5 3 4 7 8 12 15 18 20 21 21 22 22 22 24 25 24 25 20 19 19 18 18 16 14 15 13 11 12 11 10 9 6 4 2
1 4 6 5 5 2 4 5 4 2 7 5 8 8 4 5 5 7 9 12 16 20 22 22 23 23 25 23 24 26 25 25 23 22 23 23 16 15 14 14 15 13 12 11 10 9 7 4 4
5 4 6 5 6 5 4 7 7 5 11 15 12 17 11 7 9 12 15 18 22 24 25 25 24 24 25 23 24 26 24 24 24 27 25 21 18 16 15 16 17 16 14 12 11 9 7 5 4
4 7 8 7 12 7 7 9 5 10 15 18 15 12 8 13 15 17 20 22 25 24 24 29 27 26 27 25 24 24 25 25 25 26 23 22 19 19 19 15 16 14 16 10 10 10 9 8 7
6 12 11 5 4 4 7 6 9 13 24 23 20 17 14 12 14 19 22 24 23 22 26 25 28 28 28 26 26 25 25 27 29 28 26 24 23 20 19 18 18 16 16 14 13 12 11 9 7
9 11 10 11 10 10 11 22 16 21 24 25 20 15 18 17 21 20 23 22 21 25 25 27 27 30 30 31 28 27 27 27 28 27 28 28 23 22 21 20 20 18 19 18 16 14 12 11 9
2 8 13 11 14 11 11 24 6 16 15 19 15 18 16 16 19 18 19 23 24 24 26 24 28 30 29 31 30 29 28 28 28 28 29 34 27 25 24 22 21 20 21 18 16 14 13 12 10
4 11 15 17 11 9 8 11 17 22 11 16 20 16 12 14 15 19 19 20 21 23 22 27 30 32 34 34 33 32 29 30 29 29 31 35 34 29 27 24 23 23 22 21 18 16 14 11 10
6 4 10 7 3 2 9 20 20 12 9 13 17 18 16 20 20 19 18 18 18 21 23 25 32 36 35 37 36 34 31 30 29 28 29 35 37 33 30 26 27 26 25 22 19 17 14 10 8
7 13 15 13 5 3 12 13 14 7 9 20 22 24 23 24 23 22 21 20 20 21 22 24 27 30 33 34 31 31 30 32 30 29 29 33 37 36 31 28 26 28 26 24 20 17 15 12 10
14 10 11 10 9 10 15 20 21 24 23 26 26 24 21 17 22 20 18 18 18 17 17 19 20 23 25 25 27 27 28 30 30 32 34 31 36 35 33 28 27 29 25 22 20 18 17 12 11
14 17 21 20 18 15 21 23 19 22 25 27 23 21 16 12 12 14 15 14 13 10 11 13 16 18 20 23 25 27 30 29 31 33 32 31 37 38 39 32 28 31 32 30 25 19 18 13 14
17 22 22 22 16 7 17 23 25 25 22 22 22 17 12 7 9 11 15 18 18 14 11 9 11 13 17 19 21 23 20 25 27 26 26 30 32 36 41 36 37 38 34 31 30 28 19 15 21
18 16 21 23 16 14 13 13 3 5 9 15 11 10 5 4 11 14 18 20 21 22 20 14 9 9 12 16 15 17 17 16 16 23 24 26 29 35 42 42 41 41 40 39 40 37 29 22 21
19 15 16 14 8 9 8 10 12 12 18 12 13 12 14 15 17 16 18 21 23 22 22 19 13 6 6 11 15 19 19 20 19 19 21 24 27 32 38 41 40 42 44 34 39 39 33 24 20
9 5 4 4 8 8 5 6 7 5 4 7 11 13 16 16 18 19 20 25 25 30 29 25 22 14 5 6 12 12 18 18 17 15 17 22 22 28 29 33 36 37 38 40 39 39 36 31 23
1 4 7 2 4 9 10 8 2 3 2 9 11 14 17 18 17 17 21 25 29 32 30 26 24 23 16 7 7 11 13 16 16 14 14 15 19 24 33 38 38 39 38 41 43 42 41 37 29
4 5 5 5 5 7 6 3 7 11 6 12 14 12 13 12 15 19 19 24 29 29 27 26 28 27 23 17 11 11 12 14 17 18 15 16 17 20 28 32 35 38 44 45 45 44 44 43 37
5 7 4 6 10 16 12 8 7 5 16 13 14 14 15 18 16 16 18 20 20 21 26 29 29 28 29 25 21 15 12 13 16 16 18 19 21 22 23 28 34 37 38 39 41 40 43 42 42
4 6 8 3 5 6 10 17 7 8 9 12 13 14 14 13 13 13 16 20 24 24 22 25 24 24 25 24 25 23 18 15 16 19 20 20 20 21 21 24 32 35 35 37 37 38 40 40 40
8 4 7 5 5 9 14 14 10 11 4 7 11 11 11 10 12 12 15 18 19 21 20 20 20 20 20 21 21 20 22 23 19 19 19 21 22 21 22 23 27 33 35 37 38 36 36 37 37
5 6 6 2 4 4 4 9 2 3 5 7 7 9 11 12 12 12 15 19 19 19 21 22 24 25 25 24 21 19 19 21 20 17 17 18 20 21 22 25 30 32 32 34 36 39 36 38 38
6 10 13 8 9 10 13 18 12 5 7 5 5 6 7 8 10 11 14 16 18 19 21 22 22 23 24 24 23 22 20 20 21 23 24 22 19 19 21 24 27 28 31 34 37 38 37 37 39
Wind_Direction
332 342 330 251 250 252 259 190 305 261 248 48 127 254 313 316 289 328 151 183 178 175 175 182 179 184 184 182 182 177 175 180 171 181 186 164 179 178 167 164 153 136 129 131 128 116 115 142 157
352 344 304 265 259 269 68 140 225 328 320 200 215 224 250 285 264 280 233 190 179 175 176 179 184 185 188 192 191 188 184 184 180 183 199 180 205 200 191 191 185 179 165 169 194 138 126 133 178
40 35 271 286 261 307 353 197 48 341 261 226 242 247 292 237 206 272 238 176 173 179 181 185 189 190 192 198 196 194 193 191 191 195 207 206 200 183 182 181 180 195 179 170 179 181 174 185 220
248 169 136 266 276 276 267 297 294 300 201 229 276 259 225 253 223 173 189 173 174 183 186 194 191 195 197 198 198 198 200 192 192 193 218 215 204 195 190 192 180 178 177 175 195 174 193 224 243
49 218 239 268 277 273 262 287 287 280 278 196 211 293 258 205 216 207 179 182 182 184 188 191 193 197 202 207 207 204 198 197 193 207 218 215 214 207 203 188 182 192 193 200 187 161 168 154 163
160 281 242 271 280 277 283 270 269 252 242 187 224 262 265 166 206 210 192 192 191 188 187 188 193 198 203 206 209 207 198 197 205 211 211 215 217 206 203 190 187 189 190 170 158 158 141 141 132
245 229 285 279 282 284 254 184 228 265 239 236 252 262 278 229 207 199 194 192 193 194 194 195 195 199 200 203 202 201 199 199 199 210 213 214 208 203 199 196 191 185 171 168 161 155 151 150 135
177 234 224 224 244 273 207 223 213 248 296 108 222 239 274 116 182 187 187 192 196 198 202 203 202 202 203 203 204 201 203 210 211 218 218 216 215 212 204 202 189 179 174 169 167 163 164 173 166
215 232 244 239 206 212 186 238 171 280 264 219 204 244 293 161 180 178 185 197 202 207 207 207 207 207 206 208 210 213 213 210 211 218 218 215 210 211 209 198 197 181 178 178 177 186 192 188 182
223 236 245 227 226 244 236 242 282 245 252 255 251 243 238 209 208 211 208 210 210 212 210 209 210 210 208 211 210 213 215 214 214 214 211 206 205 203 198 200 191 194 187 182 184 199 193 185 173
188 242 250 240 243 258 272 261 245 264 270 261 268 281 245 226 229 230 232 230 222 219 212 210 209 209 209 211 209 209 210 210 213 206 204 202 200 205 199 193 192 193 194 181 189 196 191 189 181
237 243 247 263 225 228 260 294 253 243 260 277 287 280 277 241 234 231 235 235 230 222 221 216 211 208 210 211 212 213 209 207 207 204 206 204 204 201 197 196 194 192 191 193 194 193 193 192 192
235 254 257 252 257 256 274 267 266 264 263 274 275 268 262 263 259 251 247 245 234 229 224 220 213 213 210 209 211 213 214 213 209 209 211 209 204 203 200 199 197 197 200 200 198 194 192 192 191
334 273 278 272 257 243 243 269 281 259 264 277 272 267 270 263 265 266 249 248 235 232 229 222 220 218 215 216 215 214 213 212 209 211 213 213 209 206 203 201 201 202 203 202 199 196 193 191 191
314 294 290 270 256 230 216 260 236 264 277 274 284 284 274 260 262 254 259 249 244 240 236 226 223 219 217 218 217 216 216 212 211 213 215 215 213 211 207 204 204 205 205 204 200 196 195 193 194
272 248 283 292 170 190 197 273 282 295 274 273 287 288 281 277 279 277 271 256 248 241 235 232 229 226 221 219 217 216 215 215 217 216 214 215 215 213 208 207 207 206 205 202 200 198 193 189 191
230 268 265 286 242 173 207 277 283 272 285 288 280 278 276 288 289 289 286 272 263 253 245 236 230 227 225 224 220 219 217 217 217 217 216 216 215 213 209 209 208 207 203 202 199 196 194 188 186
270 259 253 259 286 247 271 267 280 287 290 280 276 277 282 287 288 314 300 285 276 266 255 245 237 231 228 225 223 224 223 222 219 216 217 214 214 213 211 210 208 207 203 202 201 198 193 190 183
283 272 273 278 279 294 282 291 296 289 279 276 285 278 281 288 329 329 319 315 307 286 269 251 238 231 220 219 219 222 224 224 222 219 218 215 215 212 212 210 207 207 205 204 203 195 194 188 179
259 268 276 280 275 287 290 297 289 274 276 275 278 286 297 333 3 22 22 26 16 0 340 305 264 241 227 226 225 223 234 238 237 232 227 219 216 214 213 209 208 209 205 204 202 198 186 194 189
249 264 275 284 307 277 293 281 269 280 268 280 284 285 319 55 67 41 32 25 22 19 13 359 317 270 242 229 228 232 241 234 234 232 232 226 220 218 220 215 213 212 208 204 205 200 194 185 197
277 263 267 282 299 291 355 295 298 264 274 322 40 63 94 67 45 37 36 34 26 18 21 17 7 348 271 237 230 225 232 239 237 233 235 233 226 222 220 218 217 214 212 208 209 208 204 193 188
261 0 302 296 276 297 257 260 314 252 271 60 67 90 71 39 44 36 30 30 28 27 24 18 23 25 1 264 240 248 253 254 255 253 232 223 227 227 224 220 217 215 215 214 212 209 206 205 200
234 297 278 202 264 261 261 216 325 356 122 62 69 68 41 43 45 38 34 36 32 28 27 27 31 27 15 0 297 260 261 268 261 254 245 231 229 226 223 223 218 218 217 217 217 217 215 211 208
224 305 308 271 221 271 108 284 268 277 354 60 87 59 55 48 43 34 31 29 27 28 29 32 31 30 28 22 353 323 298 277 267 266 251 247 234 231 231 224 219 218 219 220 219 217 217 215 213
173 176 203 271 283 293 313 255 259 243 90 78 55 48 40 37 36 30 28 28 28 28 28 26 27 29 25 19 12 359 331 306 292 279 263 254 244 244 242 231 227 223 221 219 219 217 217 217 217
104 208 234 244 273 276 260 261 242 102 85 61 54 42 35 28 28 24 20 21 19 23 22 25 25 23 24 22 14 14 0 334 309 295 279 267 259 258 247 236 232 227 226 222 219 218 219 217 216
210 206 223 239 246 244 261 264 265 182 74 53 49 31 20 20 24 20 17 18 20 20 18 18 19 20 18 17 21 15 6 2 346 317 293 279 271 258 251 243 238 231 225 224 221 222 221 218 218
206 213 212 122 225 257 274 274 76 58 111 60 33 18 13 16 20 17 13 13 12 14 14 12 10 9 9 10 12 12 9 7 -0 347 324 303 290 278 260 251 245 238 228 225 225 225 222 219 219
270 252 215 228 232 231 248 249 324 113 111 76 50 22 15 11 6 7 10 4 6 7 5 5 3 3 2 359 359 0 1 3 0 356 351 338 311 292 275 262 251 244 234 228 225 226 226 222 219